Vertical_Velocity
15 11 5 3 5 0 -6 2 0 3 2 -0 1 -1 -3 -1 0 -0 -0 -1 -0 -1 -0 0 1 -2 -1 1 -0 -1 1 -2 -1 -9 -3 -1 -1 -2 -3 -6 -4 -1 -4 -12
6 4 9 6 0 -6 3 1 -4 2 2 -2 -0 -1 0 -1 1 -0 -0 0 -1 -0 -1 0 0 -0 -0 -0 -1 -2 -1 -2 -2 -12 -10 -3 0 -1 -0 -1 -2 -2 -5 -10
-1 0 3 1 -0 5 2 0 1 6 4 2 -1 -0 -1 1 1 -0 -0 -1 1 -1 0 -0 -1 0 -0 1 -0 1 -0 -0 -4 -6 -3 0 -1 -1 -0 -1 -2 -2 -3 -2
1 3 -0 -4 1 -3 15 4 -4 -2 1 2 0 1 0 1 1 0 2 3 -0 -1 0 0 0 -0 -2 -1 0 0 -3 -1 0 -1 -0 1 -0 0 -1 1 -2 -2 -6 -1
2 1 -8 -0 -1 5 10 -4 -4 2 -0 1 5 -0 -3 -1 1 -5 0 -1 0 -0 -1 -1 0 -1 0 -1 -4 -0 -0 0 0 -2 -1 1 1 -1 0 -0 -1 1 1 -4
8 -7 0 0 -4 3 9 8 0 -0 1 1 -0 -3 -2 -3 -2 -1 1 -2 -1 1 -1 -1 -3 -2 -1 -1 -0 -0 -1 -1 -0 -3 0 -1 -1 -8 -2 -2 0 -2 2 -15
-1 -3 1 -3 -6 -1 9 -0 0 -1 -1 -1 -3 0 -1 -0 -0 -4 -1 -1 -2 -2 -3 -2 1 2 1 4 -3 0 -1 0 -0 -2 -2 -1 -17 -1 -0 -0 -2 -0 1 -0
-6 -2 -2 -3 3 -1 8 1 -0 -4 -1 -2 1 2 -1 1 2 -1 -2 2 0 0 -1 -2 -1 -2 -1 -3 -1 1 -0 -1 -1 -1 -1 -9 -8 -3 1 -2 -2 1 0 1
-12 -5 1 -3 1 -4 5 3 -0 -0 -7 -3 0 -1 -1 -1 0 -0 1 4 1 -1 -1 -0 -1 -2 -2 -2 0 -0 2 1 0 2 1 -1 -4 -2 2 0 -3 1 -1 1
-3 -1 0 -1 -1 3 1 -2 -1 -0 -5 1 -1 -2 -4 -0 0 -2 1 2 -1 0 0 0 -0 -2 -1 -1 -0 -0 1 1 -1 -1 -0 -6 -1 -1 2 -3 -6 1 3 1
3 -0 1 -1 2 2 2 -4 0 -0 -1 1 -1 -0 -4 -1 1 -2 0 -5 -2 -1 -0 0 -2 0 -2 -0 -1 -1 -4 -3 -1 2 2 -6 1 -5 -5 2 3 1 -2 0
-0 2 4 -2 -1 -1 4 -3 1 -2 -1 0 0 4 -4 -1 -1 -6 1 -1 -1 -1 -3 -1 -1 0 -1 -0 -3 -3 -3 -5 -4 -4 -6 2 3 3 5 5 2 -3 5 -8
4 -2 -4 1 -1 0 1 -2 -0 -2 -4 1 1 2 0 -1 0 -2 -6 0 0 0 1 -3 -0 -2 -2 -2 -4 0 -2 0 -0 -4 -5 -1 -0 -4 -8 8 5 4 0 16
-1 -1 -0 -4 0 1 -4 -4 -1 -1 -2 -5 1 1 1 1 -1 1 -1 -2 1 -1 -1 -1 -1 -2 0 -2 -4 -2 -5 -1 -1 -5 -5 -6 -6 4 0 -13 -7 -2 -10 2
1 -7 -5 -3 -2 -2 -2 -1 -4 -2 -3 -3 1 3 2 1 2 -1 -0 0 -1 1 -0 -1 -2 -0 -0 -0 -2 -0 -4 -5 1 -8 -8 10 -11 -14 -0 4 1 -5 2 -6
-3 1 -2 -4 -4 -1 -3 -6 -1 -2 -1 -4 -3 -0 1 3 -0 -1 -2 1 1 -0 -3 -2 -0 1 -0 0 -0 -9 -5 1 6 -15 2 5 -7 0 -8 -2 4 -5 4 -4
-3 -4 -2 -1 -3 -2 -3 -1 2 1 -5 -4 -2 -1 -0 -1 0 -1 -0 1 -0 0 -1 1 -1 -1 5 0 1 -5 -5 -0 1 3 4 -12 5 -16 3 -0 2 5 -1 1
-2 -1 -2 -2 -1 -0 -3 -0 -1 -1 -4 -3 -3 -4 -2 1 -1 -2 2 1 2 3 -0 2 -0 1 2 -0 -6 -2 1 4 -0 -0 4 -3 -7 -1 -7 1 -5 -1 -3 -3
-0 -1 -2 -4 -3 -3 -1 0 -2 -5 -5 -3 -1 -3 -4 0 0 -0 2 2 -2 2 -0 -1 1 -0 -2 -6 -1 3 -3 1 -5 -4 -3 -5 3 -3 -3 4 -1 0 -3 -1
-1 -2 -2 -3 -2 -1 -3 -2 -2 -3 -3 -3 -2 1 -4 -0 0 -2 -0 1 -1 -1 -6 1 1 -3 -4 9 -4 -12 -6 -2 1 4 -10 -5 -6 -0 -4 -5 -1 1 -2 -2
-3 -2 -3 0 1 1 -1 -2 -3 -0 -3 -1 -1 -1 -1 2 -3 -2 2 -2 -1 -0 -7 2 -1 1 0 -10 -6 -3 -1 0 -4 4 2 4 7 3 2 -6 -4 0 -1 -5
-2 -4 -3 -0 -2 -2 -9 -2 -3 -2 -3 1 -1 -1 -0 1 1 -0 -2 -1 -1 -3 -1 -0 -0 3 -1 -0 -2 -4 2 3 -0 5 1 -0 2 4 7 3 -2 -0 -0 0
-1 -3 -3 -1 0 -10 -5 -2 -5 -2 -1 0 -0 -3 0 1 1 -0 -0 -2 -4 1 2 -3 -3 0 -1 -3 -3 -5 5 2 3 -2 2 2 4 5 11 5 5 5 2 -1
-2 -2 -5 -8 -4 -2 -3 -3 -3 -0 -0 0 -1 -1 -0 1 -1 -1 -1 -7 -0 -0 0 -2 -0 -2 -6 1 4 0 -8 -1 -2 -2 -1 2 3 -2 1 11 1 -2 -1 1
-3 -1 -4 -1 0 0 0 0 -0 1 1 0 -0 -0 -0 -1 -2 -1 -3 -4 -1 -3 -1 -1 -1 -3 1 -2 -3 -2 -2 -3 -2 -1 1 2 1 -1 2 8 0 3 2 -1
-2 -1 -2 1 -1 -1 -0 -0 -1 1 1 0 0 -1 -3 -2 -2 -1 -3 1 -3 -2 -1 -4 -2 -2 0 -1 1 -1 1 1 -0 -0 3 2 1 -0 -0 7 -0 0 1 -1
-2 -2 -1 0 -2 -3 -0 -0 1 1 2 -1 -1 -2 -10 -4 -1 -1 -1 -2 -2 0 -4 4 8 3 -2 -3 -1 -0 0 -3 -1 0 1 1 1 1 1 3 1 2 2 3
Height
1465 1468 1471 1476 1480 1484 1490 1497 1502 1499 1500 1507 1504 1504 1497 1494 1495 1494 1497 1497 1497 1498 1498 1497 1497 1496 1494 1495 1496 1497 1500 1504 1507 1499 1491 1489 1489 1490 1491 1510 1510 1520 1521 1496
1460 1464 1467 1469 1474 1479 1484 1489 1494 1495 1498 1503 1501 1496 1495 1492 1494 1494 1495 1496 1497 1498 1498 1498 1494 1494 1497 1495 1495 1496 1498 1502 1513 1501 1497 1491 1489 1489 1489 1491 1498 1503 1520 1493
1456 1460 1463 1464 1470 1477 1481 1486 1489 1492 1493 1494 1493 1493 1492 1492 1491 1493 1493 1495 1496 1497 1499 1497 1497 1496 1496 1495 1495 1495 1496 1501 1501 1510 1497 1496 1493 1488 1487 1489 1506 1494 1493 1482
1448 1452 1457 1462 1467 1472 1479 1479 1480 1480 1483 1488 1491 1491 1490 1489 1491 1491 1491 1493 1493 1496 1503 1499 1497 1498 1497 1497 1496 1496 1496 1500 1499 1496 1496 1495 1494 1491 1488 1490 1489 1492 1483 1485
1440 1448 1455 1457 1463 1471 1474 1473 1476 1478 1480 1480 1485 1490 1489 1488 1489 1490 1491 1492 1493 1494 1496 1495 1496 1500 1498 1497 1499 1498 1498 1499 1501 1503 1495 1494 1492 1487 1482 1481 1480 1481 1481 1480
1437 1447 1451 1456 1462 1466 1469 1468 1471 1473 1476 1479 1484 1484 1485 1485 1487 1493 1491 1491 1495 1496 1496 1496 1498 1499 1499 1499 1500 1500 1499 1501 1503 1504 1492 1495 1492 1479 1474 1469 1468 1469 1472 1471
1437 1444 1451 1455 1461 1465 1468 1469 1472 1473 1475 1476 1477 1478 1480 1481 1486 1489 1492 1493 1494 1496 1496 1497 1497 1496 1495 1496 1496 1498 1499 1501 1502 1501 1495 1506 1476 1470 1469 1468 1466 1466 1466 1467
1438 1445 1451 1455 1458 1462 1468 1468 1471 1472 1475 1472 1475 1477 1479 1481 1485 1489 1490 1491 1493 1494 1495 1497 1496 1494 1491 1487 1488 1491 1494 1498 1504 1505 1499 1486 1472 1468 1467 1466 1467 1468 1464 1465
1440 1447 1450 1454 1456 1461 1467 1466 1469 1471 1471 1473 1472 1476 1478 1483 1486 1488 1489 1490 1492 1495 1497 1498 1502 1495 1488 1486 1485 1486 1490 1493 1496 1497 1495 1489 1472 1470 1467 1465 1473 1469 1467 1466
1444 1447 1450 1452 1456 1460 1465 1465 1466 1470 1471 1471 1472 1474 1479 1480 1483 1486 1488 1489 1490 1494 1498 1497 1498 1497 1488 1490 1486 1490 1494 1495 1490 1491 1485 1481 1473 1469 1466 1475 1482 1474 1471 1469
1444 1447 1450 1454 1457 1459 1463 1463 1465 1469 1469 1469 1472 1474 1476 1480 1482 1483 1487 1490 1491 1494 1500 1496 1493 1494 1494 1494 1489 1486 1489 1493 1493 1491 1490 1487 1473 1470 1473 1482 1476 1476 1474 1473
1446 1449 1451 1455 1458 1460 1462 1463 1463 1467 1467 1470 1472 1474 1475 1480 1481 1483 1485 1486 1487 1490 1498 1497 1495 1492 1498 1500 1497 1487 1490 1487 1488 1486 1480 1476 1476 1477 1477 1478 1477 1475 1474 1473
1447 1449 1453 1456 1458 1460 1461 1461 1463 1466 1467 1472 1474 1476 1477 1478 1480 1482 1483 1485 1487 1489 1491 1493 1495 1500 1495 1503 1497 1488 1485 1485 1486 1483 1476 1473 1472 1473 1475 1473 1473 1473 1473 1471
1448 1451 1455 1457 1459 1459 1461 1463 1464 1465 1467 1470 1476 1478 1477 1478 1478 1481 1482 1484 1486 1488 1491 1491 1493 1496 1490 1495 1489 1490 1487 1485 1483 1480 1477 1473 1470 1470 1470 1469 1469 1468 1468 1468
1450 1452 1456 1458 1460 1461 1462 1464 1465 1466 1470 1472 1474 1477 1477 1478 1478 1479 1482 1484 1485 1488 1490 1490 1492 1489 1489 1486 1486 1486 1480 1480 1482 1476 1474 1471 1468 1465 1463 1462 1461 1462 1461 1459
1451 1454 1455 1458 1461 1463 1464 1466 1466 1468 1469 1470 1475 1478 1479 1477 1477 1478 1481 1483 1484 1486 1485 1485 1484 1483 1485 1488 1484 1471 1473 1473 1472 1469 1467 1464 1459 1457 1455 1451 1449 1450 1449 1450
1451 1454 1456 1458 1462 1464 1464 1467 1469 1468 1469 1470 1476 1477 1478 1478 1478 1479 1480 1480 1481 1482 1482 1480 1480 1479 1481 1481 1471 1469 1468 1467 1465 1463 1462 1455 1452 1447 1444 1442 1439 1439 1438 1438
1453 1455 1458 1461 1464 1465 1467 1468 1469 1469 1470 1472 1479 1480 1479 1479 1478 1479 1478 1478 1478 1477 1476 1477 1476 1477 1476 1475 1463 1463 1463 1461 1459 1457 1454 1448 1441 1438 1433 1432 1428 1424 1423 1423
1454 1457 1460 1463 1465 1467 1469 1470 1470 1471 1475 1474 1477 1483 1488 1479 1478 1478 1477 1476 1478 1476 1474 1473 1474 1472 1472 1462 1461 1461 1459 1457 1451 1446 1442 1436 1430 1424 1421 1419 1416 1413 1409 1411
1456 1460 1463 1465 1468 1470 1472 1473 1473 1473 1474 1476 1478 1479 1481 1480 1478 1477 1478 1475 1476 1479 1470 1469 1469 1464 1459 1460 1460 1459 1454 1450 1445 1437 1429 1425 1419 1414 1409 1406 1403 1400 1398 1399
1459 1462 1465 1468 1470 1471 1472 1473 1475 1477 1479 1478 1479 1479 1479 1479 1480 1479 1477 1477 1474 1477 1470 1466 1463 1457 1461 1460 1457 1452 1446 1441 1435 1429 1422 1416 1409 1401 1395 1390 1387 1385 1384 1385
1460 1462 1466 1469 1471 1472 1475 1484 1480 1479 1480 1477 1478 1478 1478 1478 1477 1477 1476 1476 1473 1479 1465 1467 1459 1457 1456 1454 1448 1442 1437 1431 1424 1418 1411 1403 1395 1388 1381 1375 1370 1368 1369 1372
1462 1464 1466 1469 1474 1481 1485 1491 1488 1484 1475 1476 1476 1477 1477 1477 1477 1476 1476 1481 1474 1464 1464 1459 1456 1454 1451 1447 1441 1433 1428 1422 1415 1407 1400 1392 1384 1375 1368 1359 1353 1352 1355 1360
1462 1464 1472 1475 1484 1479 1476 1476 1475 1473 1474 1475 1476 1476 1476 1475 1476 1475 1478 1469 1467 1469 1473 1454 1451 1449 1445 1440 1434 1428 1419 1413 1406 1398 1391 1383 1376 1367 1360 1354 1349 1349 1351 1355
1462 1464 1472 1473 1469 1470 1470 1472 1472 1473 1473 1475 1475 1476 1477 1475 1477 1475 1473 1474 1469 1463 1452 1451 1448 1444 1439 1433 1427 1421 1414 1406 1399 1393 1385 1379 1371 1364 1358 1354 1353 1353 1354 1357
1463 1465 1468 1468 1469 1469 1469 1470 1470 1471 1472 1473 1474 1476 1482 1479 1477 1475 1476 1470 1461 1452 1451 1448 1444 1440 1435 1428 1422 1415 1409 1402 1395 1389 1382 1375 1369 1363 1358 1355 1355 1355 1357 1359
1464 1465 1466 1467 1468 1469 1468 1469 1469 1470 1471 1472 1474 1481 1477 1474 1475 1473 1460 1455 1451 1449 1445 1442 1439 1435 1429 1422 1416 1410 1404 1397 1391 1385 1380 1374 1368 1363 1360 1358 1357 1357 1358 1360